Regional Weather Roundup
Issued by NWS Charleston, SC

Current Version | Previous Version | Graphics & Text | Print | Product List | Glossary On
Versions: 1 2 3 4 5 6 7 8 9 10 11 12 13 14 15 16 17 18 19 20 21 22 23 24 25 26 27 28 29 30 31 32 33 34 35 36 37 38 39 40 41 42 43 44 45 46 47 48 49 50
000
ASUS42 KCHS 300312
RWRCHS

REGIONAL WEATHER ROUNDUP
NATIONAL WEATHER SERVICE CHARLESTON SC
1100 PM EDT SAT AUG 29 2015

NOTE: "FAIR" INDICATES FEW OR NO CLOUDS BELOW 12,000 FEET WITH NO
SIGNIFICANT WEATHER AND/OR OBSTRUCTIONS TO VISIBILITY.

NOT ALL STATIONS ARE QUALITY CONTROLLED BY THE NATIONAL
WEATHER SERVICE. USE DATA WITH CAUTION...ESPECIALLY
DEWPOINT OBSERVATIONS.

SCZ027-030-031-034>040-042>050-300400-
...SOUTHEAST SOUTH CAROLINA...

CITY           SKY/WX    TMP DP  RH WIND       PRES   REMARKS
N CHARLESTON   MOCLDY    75  71  87 NE3       30.12F
WATERFRONT PRK   N/A     80  75  84 NE6       30.10S
MOUNT PLEASANT FAIR      75  73  94 CALM      30.12F
JOHNS ISLAND   FAIR      77  73  88 CALM      30.12S
PINOPOLIS        N/A     81  64  57 VRB2      30.07R
MONCKS CORNER  FAIR      72  68  88 CALM      30.13F
SUMMERVILLE    FAIR      70  68  94 CALM      30.13F
BEAUFORT MCAS  CLOUDY    78  71  79 NE3       30.12S
BEAUFORT ARPT  FAIR      79  73  83 CALM      30.11S
HILTON HEAD IS CLOUDY    81  73  78 NE6       30.12S
WALTERBORO     CLOUDY    77  63  61 CALM      30.14S
ALLENDALE      FAIR      75  63  64 CALM      30.13S

...SOUTHERN MIDLANDS AND PEE DEE...

CITY           SKY/WX    TMP DP  RH WIND       PRES   REMARKS
GEORGETOWN     NOT AVBL
KINGSTREE      NOT AVBL
ORANGEBURG     CLOUDY    71  63  75 CALM      30.14S
BARNWELL       FAIR      75  64  69 CALM      30.14F
AIKEN          FAIR      72  55  56 NE3       30.18S
MANNING        FAIR      68  61  77 CALM      30.14S
COLUMBIA       CLOUDY    78  58  49 CALM      30.14S
SUMTER         CLOUDY    70  61  71 NE2       30.13S
FLORENCE       CLOUDY    72  64  76 CALM      30.14S
MYRTLE BEACH   MOCLDY    75  66  73 CALM      30.15R
N MYRTLE BEACH MOCLDY    75  71  87 CALM      30.13S

$$

GAZ063-065-086>088-099>101-113>116-118-119-134>141-150-300400-
...SOUTHEAST GEORGIA...

CITY           SKY/WX    TMP DP  RH WIND       PRES   REMARKS
SAVANNAH ARPT  CLOUDY    76  71  85 CALM      30.12S
HUNTER AAF     CLOUDY    76  76 100 N1        30.09S
FORT STEWART   CLOUDY    76  71  86 NE3       30.09S
STATESBORO     CLOUDY    72  72 100 CALM      30.12F
SYLVANIA       CLOUDY    73  72  97 CALM      30.13F
CLAXTON        NOT AVBL

...CSRA...CENTRAL AND FAR SOUTHEAST GEORGIA...

CITY           SKY/WX    TMP DP  RH WIND       PRES   REMARKS
THOMSON        CLOUDY    75  69  81 CALM      30.18S
AUGUSTA-BUSH   CLOUDY    70  67  90 CALM      30.13R
AUGUSTA-DANIEL CLOUDY    85  60  42 E6        30.14F
SWAINSBORO     FAIR      75  70  83 E3        30.13S
VIDALIA        CLOUDY    72  70  94 CALM      30.12S
EASTMAN        FAIR      74  74 100 CALM      30.14S
HAZLEHURST     FAIR      75  75 100 E3        30.11R
ALMA           CLOUDY    74  72  93 CALM      30.10S
WAYCROSS       CLOUDY    77  77 100 CALM      30.09S
JESUP          LGT RAIN  77  75  94 E6        30.10S
BAXLEY         FAIR      75  73  94 CALM      30.10F
BRUNSWICK      CLOUDY    77  75  94 CALM      30.10F
SAINT SIMONS   CLOUDY    81  74  79 E7        30.09S

$$

SCZ027-028-034-036>038-045-046-048>050-GAZ119-141-300400-
...LAKE AND SUPPLEMENTAL COASTAL OBSERVATIONS...

STATION/POSITION TIME  TEMP    WIND        PRES    WAVE   SWELL
                       AIR SEA DIR/SP/G            HT/PER HT/PER/DIR
                 (UTC) (F)     (DEG/KT/KT) (MB)    (FT/S) (FT/S/D)
UPR LAKE MARION  NOT AVBL
WINYAH BAY       NOT AVBL
LAKE MURRAY      0200   80     100/  5/  7 1020.3R
ACE BASIN NERRS  NOT AVBL
FORT PULASKI     NOT AVBL
SAPELO ISLAND    0200   81      60/  5     1019.0S

$$

ANZ835-935-AMZ111-154-330-350-352-354-370-450-454-472-300400-
...C-MAN AND BUOY OBSERVATIONS...

STATION/POSITION TIME  TEMP    WIND        PRES    WAVE   SWELL
                       AIR SEA DIR/SP/G            HT/PER HT/PER/DIR
                 (UTC) (F)     (DEG/KT/KT) (MB)    (FT/S) (FT/S/D)
BUOY 41004       0250   82 85   50/ 14/ 16 1019.2R   4/11   3/11
BUOY 41008       0250   82 85  100/ 12/ 14 1018.9F   4/11   3/100/11
FOLLY BEACH CMAN 0200   80      90/ 10/ 12 1020.2R
CAPERS NEARSHORE 0208   81      90/ 10/ 14 1020.1R
FRIPP NEARSHORE  0200   81      90/ 12/ 14 1019.3R


STATION/POSITION TIME  TEMP    WIND        PRES    WAVE   SWELL
                       AIR SEA DIR/SP/G            HT/PER HT/PER/DIR
                 (UTC) (F)     (DEG/KT/KT) (MB)    (FT/S) (FT/S/D)
5E ST. MARYS GA  0221      86                N/A     4/11   2/110/11
FRYING PAN BUOY  0250   81 81   70/ 12/ 12 1020.1R   5/11   3/130/11
BUOY 41025       0250   79 82   30/ 16/ 17 1018.8F   5/11   3/100/11
CAPE LOOKOUT NC  0200   78      20/  8/ 12 1019.8R
BUOY 41002       0250   83 84  230/  8/ 12 1020.3R   5/11   5/ 50/11
BUOY 41010       0220   84 85  140/ 17/ 23 1018.7R
ST AUGUSTINE FL  0300   82 86  120/ 14/ 15 1019.7R


$$


USA.gov is the U.S. government's official web portal to all federal, state and local government web resources and services.